Date,TemperatureHighF,TemperatureAvgF,TemperatureLowF,DewpointHighF,DewpointAvgF,DewpointLowF,HumidityHigh,HumidityAvg,HumidityLow,PressureMaxIn,PressureMinIn,WindSpeedMaxMPH,WindSpeedAvgMPH,GustSpeedMaxMPH,PrecipitationSumIn
2012-11-10,30.7,30.0,29.3,28.4,27.7,27.0,91,91,91,30.28,30.24,0,0,0,0.00
2012-11-11,50.7,44.6,32.7,32.5,28.6,21.8,90,56,34,30.38,30.29,9,0,9,0.00
2012-11-12,57.5,41.5,32.4,37.0,32.6,25.0,91,74,30,30.39,30.23,6,0,6,0.00
2012-11-13,65.8,48.5,37.2,44.7,37.7,28.2,85,68,38,30.24,30.05,6,0,7,0.00
2012-11-14,67.6,51.8,42.3,47.2,41.8,35.7,88,71,39,30.09,29.98,7,0,7,0.00
2012-11-15,66.8,51.0,40.6,42.5,34.6,27.3,80,56,24,30.01,29.90,4,0,4,0.00
2012-11-16,56.3,50.2,45.5,48.2,41.6,29.1,92,73,43,29.98,29.85,6,0,6,0.14
2012-11-17,52.5,50.5,48.5,50.3,48.4,45.4,95,92,89,29.92,29.80,20,1,20,1.44
2012-11-18,50.5,46.9,44.1,47.2,43.3,37.9,93,87,68,30.16,29.92,19,0,19,0.42
2012-11-19,57.2,49.5,43.6,46.5,42.9,40.8,92,79,58,30.21,30.11,11,0,12,0.00
2012-11-20,54.8,50.8,45.1,48.2,45.0,40.6,92,81,64,30.13,29.98,10,0,10,0.45
2012-11-21,52.6,49.0,42.5,50.9,47.1,40.4,94,93,92,30.16,30.00,11,0,11,1.09
2012-11-22,61.3,46.9,37.9,49.9,42.5,36.1,94,86,55,30.20,30.11,6,0,6,0.00
2012-11-23,66.6,49.4,38.8,51.0,43.1,37.0,93,81,37,30.26,30.14,5,0,5,0.01
2012-11-24,67.4,49.9,40.3,48.7,39.7,31.6,91,71,31,30.17,29.97,5,0,5,0.00
2012-11-25,62.9,46.5,0.0,45.7,39.8,0.0,91,79,34,30.00,29.89,5,0,5,0.01
2012-11-26,63.9,47.3,36.8,45.4,37.7,31.1,90,72,38,30.05,29.92,4,0,4,0.00
2012-11-27,60.5,46.9,39.1,47.0,37.4,30.9,85,70,46,30.09,29.98,4,0,4,0.00
2012-11-28,51.7,48.5,44.6,49.8,44.5,36.1,93,86,64,30.01,29.85,20,1,20,1.36
2012-11-29,55.4,51.6,48.0,50.0,48.4,46.0,93,89,72,30.02,29.80,19,2,19,0.70
2012-11-30,52.9,51.8,50.5,51.1,50.0,48.8,94,94,92,29.95,29.71,26,4,26,4.08
2012-12-1,53.1,51.5,49.1,51.2,49.6,47.2,94,93,91,29.99,29.82,19,2,19,1.38
2012-12-2,54.1,49.2,40.8,52.4,47.5,39.2,94,94,92,30.08,29.62,32,2,32,1.97
2012-12-3,56.3,46.7,37.6,51.9,44.1,36.0,96,91,76,30.17,30.05,5,0,5,0.00
2012-12-4,52.8,50.3,46.2,49.7,47.7,43.7,93,91,86,30.19,30.11,6,0,6,0.10
2012-12-5,54.1,52.5,48.3,52.4,50.9,46.7,95,95,94,30.13,30.01,2,0,3,0.37
2012-12-6,52.8,51.4,50.1,51.4,49.8,48.4,96,94,94,30.03,30.00,4,0,5,0.55
2012-12-7,61.2,45.2,33.4,49.8,40.1,28.2,92,83,49,30.08,30.01,1,0,1,0.02
2012-12-8,56.5,50.6,32.9,43.0,39.5,27.4,93,67,44,30.05,29.99,2,0,3,0.01
2012-12-9,59.9,46.4,37.2,46.6,39.1,33.2,92,77,56,30.16,30.02,10,0,10,0.00
2012-12-10,64.3,49.0,37.5,48.2,40.9,34.3,92,75,50,30.22,30.09,6,0,6,0.00
2012-12-11,59.3,49.5,34.6,44.3,40.1,30.9,93,72,44,30.06,29.75,11,1,14,0.05
2012-12-12,42.5,39.7,33.5,40.6,37.3,31.2,93,91,85,29.86,29.73,12,0,12,0.26
2012-12-13,45.7,36.6,30.1,36.7,32.7,27.8,93,86,56,29.90,29.78,7,0,11,0.02
2012-12-14,44.3,34.0,27.2,36.1,29.8,24.9,92,85,58,30.00,29.79,4,0,6,0.00
2012-12-15,40.1,34.0,27.0,33.2,29.3,24.7,92,83,65,30.08,29.99,4,0,10,0.01
2012-12-16,46.1,41.0,36.2,42.2,36.3,32.6,93,84,60,30.10,29.96,14,1,18,0.25
2012-12-17,46.8,44.1,38.8,45.2,42.4,37.0,94,93,92,29.98,29.91,15,2,18,1.25
2012-12-18,40.8,34.5,27.6,38.5,30.0,19.2,94,85,43,30.13,29.89,11,0,15,0.03
2012-12-19,43.9,31.2,22.9,25.0,21.3,10.4,88,70,26,30.30,30.13,3,0,5,0.01
2012-12-20,50.8,38.8,26.1,25.0,20.0,11.0,88,51,25,30.24,29.97,17,1,17,0.00
2012-12-21,46.4,42.2,36.3,41.6,26.4,10.7,93,60,27,29.98,29.83,17,1,28,0.43
2012-12-22,45.4,41.7,39.1,42.7,39.4,37.0,96,92,88,30.06,29.76,17,2,30,1.04
2012-12-23,43.6,41.8,39.2,42.0,39.8,37.1,94,93,91,30.06,29.84,25,2,28,1.27
2012-12-24,46.0,41.8,39.2,42.0,39.2,32.4,94,91,64,30.15,29.92,11,0,13,0.43
2012-12-25,42.1,38.5,32.9,38.2,35.6,30.8,93,89,79,30.11,29.76,13,1,18,0.23
2012-12-26,40.9,38.7,32.7,39.3,36.9,30.9,94,93,93,30.05,29.77,11,1,15,0.52
2012-12-27,45.1,35.4,29.7,38.9,32.5,27.7,94,89,71,30.14,30.04,6,0,9,0.75
2012-12-28,42.2,35.5,28.7,34.2,30.6,26.2,92,83,64,30.18,30.04,4,0,5,0.01
2012-12-29,47.9,38.6,33.5,34.3,31.4,25.5,91,77,42,30.05,29.95,3,0,5,0.00
2012-12-30,48.5,37.4,27.5,35.5,25.7,17.2,93,67,35,30.13,29.99,9,0,9,0.00
2012-12-31,47.0,34.7,27.8,32.7,23.7,15.9,91,66,38,30.27,30.10,6,0,7,0.00
2013-1-1,46.8,34.7,27.9,32.5,28.1,25.1,91,78,49,30.26,30.18,5,0,7,0.00